Location: McFarlands Corners
(41.4117°N, 81.3382°W)
Time: 13:04:23
(UTC+00:00)

Explorer 7 - Pass Details

Date: 24 February 2026
Orbit: 430 x 541 km, 50.2° (Epoch: 12 March)

Event Time Altitude Azimuth Distance (km) Brightness Sun altitude
Rises 01:35:12 0° 285° (WNW) 2,545 11.5 -28.0°
Reaches altitude 10° 01:38:20 10° 257° (WSW) 1,689 10.1 -28.6°
Maximum altitude 01:40:08 13° 229° (SW) 1,523 9.4 -28.9°
Enters shadow 01:40:21 13° 225° (SW) 1,527 9.4 -28.9°
Drops below altitude 10° 01:41:58 10° 201° (SSW) 1,716 - -29.2°
Sets 01:45:12 0° 173° (S) 2,624 - -29.8°
